Nashville, TN (37214)

11:51 PM CST on November 26, 2014 (GMT -0600)
Nashville International | Change Station
CLOSE
Current Station
Airport
Location: Nashville,
Elevation: 597 ft
Nearby Weather Stations
Active Advisory: Special Statement

Elev 597 ft 36.12 °N, 86.69 °W | Updated 58 minutes ago

Overcast
Overcast
41 °F
Feels Like 34 °F
N
12
Wind Variable Wind from WNW
Gusts 21 mph

Today
High -- | Low -- °F
--% Chance of Precip.
Yesterday
High -- | Low -- °F
Precip. -- in
6:34 AM 4:33 PM
Waxing Crescent, 26% visible
Pressure 30.07 in
Visibility 10.0 miles
Clouds Mostly Cloudy 2300 ft
Overcast 2900 ft
Windchill 34 °F
Dew Point 34 °F
Humidity 76%
Rainfall 0.06 in
Snow Depth Not available.
UV 0 out of 12
Pollen .10 out of 12
Air Quality Not available.
Flu Activity Not available.
METAR KBNA 270453Z 29010G18KT 10SM BKN023 OVC029 05/01 A3007 RMK AO2 SLP183 T00500011

More Conditions Fewer Conditions

Pressure 30.07 in
Visibility 10.0 miles
Clouds Mostly Cloudy 2300 ft
Overcast 2900 ft
Windchill 34 °F
Dew Point 34 °F
Humidity 76%
Rainfall 0.06 in
Snow Depth Not available.
UV 0 out of 12
Pollen .10 out of 12
Air Quality Not available.
Flu Activity Not available.
METAR KBNA 270453Z 29010G18KT 10SM BKN023 OVC029 05/01 A3007 RMK AO2 SLP183 T00500011

More Conditions Fewer Conditions

10-Day Weather Forecast

Almanac

Astronomy

Nov. 26, 2014 Rise Set
Actual Time
Civil Twilight
Nautical Twilight
Astronomical Twilight
Moon
Length of Visible Light
Length of Day
Tomorrow will be .
, % of the Moon is Illuminated

Today's Extremes

State Highs State Lows

Community

WunderPhotos

Upload Photos

1,773,961 photos uploaded!

WunderBlogs® & News

Nearby

Air Quality

  Air Quality AQ Index Pollutant
Not available.

Snow Depth

Station Depth Elevation

Earthquake Activity

City Distance Mag. Time & Date
Minimum magnitude displayed is 2.5.

Coastal Water Temperatures

Place Temperature

Nearby Weather Stations